Simultaneous Nadir Overpasses (SNOs) Predictions

Prediction of SNOs between NOAA-20 and PACE Satellite Orbit:

Table of predicted SNOs for the next 14.0 days since TLE Epoch: 8/17/2024
Index Date (NOAA-20) Time (NOAA-20) Lat,Lon (NOAA-20) SZA (NOAA-20 ) Date (PACE) Time (PACE) Lat,Lon (PACE) SZA (PACE ) Distance(km) Time Diff (sec)
1 08/19/2024 02:09:03 80.02, 108.81 69.75 08/19/2024 02:09:39 80.01, 108.96 69.71 3.08 36
2 08/19/2024 02:59:41 -79.81, -81.86 110.63 08/19/2024 02:58:42 -79.81, -81.74 110.62 2.26 59
3 08/21/2024 06:35:23 79.91, 43.30 70.24 08/21/2024 06:35:17 79.91, 43.37 70.24 1.31 6
4 08/23/2024 10:11:04 -79.98, 168.71 108.93 08/23/2024 10:11:49 -79.98, 168.72 108.95 0.46 45
5 08/23/2024 11:01:42 79.77, -22.02 70.71 08/23/2024 11:00:53 79.78, -22.07 70.74 1.11 49
6 08/25/2024 14:37:23 -79.85, 103.35 108.43 08/25/2024 14:37:24 -79.86, 103.23 108.42 2.48 1
7 08/27/2024 18:13:06 80.01,-132.08 72.59 08/27/2024 18:13:56 80.00,-132.00 72.55 1.59 50
8 08/27/2024 19:03:44 -79.79, 37.33 107.80 08/27/2024 19:02:59 -79.79, 37.35 107.79 0.55 45



Historial Predications of SNOs between NOAA-20 and PACE
